Location: Central Falls
(41.8900°N, 71.3929°W)
Time: 06:04:19
(UTC+00:00)

Vanguard 3 - Pass Details

Date: 06 December 2023
Orbit: 508 x 3239 km, 33.4° (Epoch: 01 March)

Event Time Altitude Azimuth Distance (km) Brightness Sun altitude
Rises 01:13:07 0° 225° (SW) 6,763 12.2 -43.6°
Reaches altitude 10° 01:18:42 10° 217° (SW) 5,395 11.5 -44.6°
Enters shadow 01:26:52 28° 192° (SSW) 3,486 10.2 -46.1°
